Weather Roundup
Issued by NWS Chicago, IL

Home | Current Version | Previous Version | Graphics & Text | Print | Product List | Glossary On
Versions: 1 2 3 4 5 6 7 8 9 10 11 12 13 14 15 16 17 18 19 20 21 22 23 24 25 26 27 28 29 30 31 32 33 34 35 36 37 38 39 40 41 42 43 44 45 46 47 48 49 50
000
NZUS59 KLOT 191610
HRRLOT

CHICAGO AREA WEATHER ROUNDUP
NATIONAL WEATHER SERVICE CHICAGO/ROMEOVILLE IL
1100 AM CDT SAT APR 19 2014

NOTE: "FAIR" INDICATES FEW OR NO CLOUDS BELOW 12,000 FEET WITH NO
SIGNIFICANT WEATHER AND/OR OBSTRUCTIONS TO VISIBILITY.

* THESE STATIONS ARE NOT UNDER NWS QUALITY CONTROL. THEY ALSO MAY NOT
  REPORT WEATHER SUCH AS PRECIPITATION OR FOG.

ILZ005-006-012>014-019>023-191700-
NORTHEAST ILLINOIS

CITY           SKY/WX    TMP DP  RH WIND       PRES   REMARKS
OHARE          MOSUNNY   51  35  54 E8        30.36F
MIDWAY         PTSUNNY   50  37  61 E5        30.36F
AURORA         SUNNY     57  35  43 E12       30.34F
LANSING*       SUNNY     56  38  52 SE10      30.36F
JOLIET*        SUNNY     56  38  49 E10       30.35F
WAUKEGAN       SUNNY     41  33  73 E12       30.38F
DUPAGE AIRPORT SUNNY     55  35  47 E9        30.34F
WHEELING       SUNNY     48  36  63 VRB6      30.38F
KANKAKEE*      SUNNY     57  39  50 SE9       30.35F
MORRIS*        SUNNY     57  31  37 SE10      30.33F
LEWIS AIRPORT* SUNNY     57  36  44 E9        30.34F
NORTHERLY IS     N/A     44  36  73 NE7         N/A
$$

WIZ051-052-058>065-066-070>072-191700-
SOUTHEAST WISCONSIN

CITY           SKY/WX    TMP DP  RH WIND       PRES   REMARKS
MILWAUKEE      PTSUNNY   42  33  70 SE13      30.41F
KENOSHA*       SUNNY     43  34  70 E13       30.38F
RACINE*        MOSUNNY   42  33  70 E13       30.41F
BURLINGTON     SUNNY     46  34  63 W12       30.37S
WEST BEND      MOSUNNY   41  30  65 E10       30.38F
$$

INZ001>003-010>013-019-020-191700-
NORTHWEST INDIANA

CITY           SKY/WX    TMP DP  RH WIND       PRES   REMARKS
GARY*          MOSUNNY   50  37  62 NE6       30.37F
MICHIGAN CITY* NOT AVBL
RENSSELAER*    NOT AVBL
VALPARAISO     SUNNY     56  37  49 E10       30.36F
$$

LMZ740>746-191700-
SOUTHERN LAKE MICHIGAN

STATION/POSITION TIME  SKY/WX   TEMP WIND        PRES    VSBY
                                AIR  DIR/SP/G
                 (UTC)          (F)  (DEG/KT/KT) (MB)    (MI)
HARRISON CRIB    1600            39   70/  8/ 10   N/A
BURNHAM HARBOR   1600            43   50/  6/  8   N/A
CALUMET HARBOR   1600            41   60/  6/  8 1028.9F
BURNS HARBOR     NOT AVBL
MICHIGAN CITY    1600            52   80/  9/ 13   N/A
$$

ABBREVIATIONS USED IN REMARKS
   TC - TEMPERATURE IN CELSIUS
  WCI - WIND CHILL INDEX
   HX - HEAT INDEX
  VSB - VISIBILITY
$$


USA.gov is the U.S. government's official web portal to all federal, state and local government web resources and services.